<?xml version="1.0" encoding="UTF-8" standalone="no" ?>
<gpx xmlns="http://www.topografix.com/GPX/1/1" xmlns:xsi="http://www.w3.org/2001/XMLSchema-instance" xsi:schemaLocation="http://www.topografix.com/GPX/1/1 http://www.topografix.com/GPX/1/1/gpx.xsd" version="1.1" creator="VisuGPX - https://www.visugpx.com">
  <metadata>
    <name>D'auberville a Villers</name>
    <desc><![CDATA[chemins Villers]]></desc>
  </metadata>
  <trk>
    <name><![CDATA[D'auberville a Villers_1]]></name>
    <trkseg>
      <trkpt lat="49.32038" lon="-0.0069">
        <ele>23.2</ele>
        <time>2013-08-06T15:57:11Z</time>
      </trkpt>
      <trkpt lat="49.32011" lon="-0.00838">
        <ele>38</ele>
        <time>2013-08-06T15:57:11Z</time>
      </trkpt>
      <trkpt lat="49.32013" lon="-0.0085">
        <ele>39.1</ele>
        <time>2013-08-06T15:57:11Z</time>
      </trkpt>
      <trkpt lat="49.32007" lon="-0.00886">
        <ele>42.3</ele>
        <time>2013-08-06T15:57:11Z</time>
      </trkpt>
      <trkpt lat="49.31997" lon="-0.00902">
        <ele>44.1</ele>
        <time>2013-08-06T15:57:11Z</time>
      </trkpt>
      <trkpt lat="49.31959" lon="-0.00928">
        <ele>48.3</ele>
        <time>2013-08-06T15:57:11Z</time>
      </trkpt>
      <trkpt lat="49.31946" lon="-0.00936">
        <ele>50.2</ele>
        <time>2013-08-06T15:57:11Z</time>
      </trkpt>
      <trkpt lat="49.31932" lon="-0.00947">
        <ele>51.6</ele>
        <time>2013-08-06T15:57:11Z</time>
      </trkpt>
      <trkpt lat="49.31919" lon="-0.00971">
        <ele>53.8</ele>
        <time>2013-08-06T15:57:11Z</time>
      </trkpt>
      <trkpt lat="49.31887" lon="-0.00998">
        <ele>58.7</ele>
        <time>2013-08-06T15:57:11Z</time>
      </trkpt>
      <trkpt lat="49.31868" lon="-0.01021">
        <ele>61.1</ele>
        <time>2013-08-06T15:57:11Z</time>
      </trkpt>
      <trkpt lat="49.31865" lon="-0.01037">
        <ele>62.8</ele>
        <time>2013-08-06T15:57:11Z</time>
      </trkpt>
      <trkpt lat="49.31862" lon="-0.01065">
        <ele>65.6</ele>
        <time>2013-08-06T15:57:11Z</time>
      </trkpt>
      <trkpt lat="49.31866" lon="-0.01106">
        <ele>67.6</ele>
        <time>2013-08-06T15:57:11Z</time>
      </trkpt>
      <trkpt lat="49.31865" lon="-0.01134">
        <ele>69.3</ele>
        <time>2013-08-06T15:57:11Z</time>
      </trkpt>
      <trkpt lat="49.31857" lon="-0.01161">
        <ele>71.8</ele>
        <time>2013-08-06T15:57:11Z</time>
      </trkpt>
      <trkpt lat="49.31838" lon="-0.01205">
        <ele>74</ele>
        <time>2013-08-06T15:57:11Z</time>
      </trkpt>
      <trkpt lat="49.31836" lon="-0.01282">
        <ele>73.8</ele>
        <time>2013-08-06T15:57:11Z</time>
      </trkpt>
      <trkpt lat="49.31836" lon="-0.0131">
        <ele>73.6</ele>
        <time>2013-08-06T15:57:11Z</time>
      </trkpt>
      <trkpt lat="49.31882" lon="-0.01356">
        <ele>65.1</ele>
        <time>2013-08-06T15:57:11Z</time>
      </trkpt>
      <trkpt lat="49.31903" lon="-0.01398">
        <ele>58.8</ele>
        <time>2013-08-06T15:57:11Z</time>
      </trkpt>
      <trkpt lat="49.31852" lon="-0.01556">
        <ele>65</ele>
        <time>2013-08-06T15:57:11Z</time>
      </trkpt>
      <trkpt lat="49.31803" lon="-0.01768">
        <ele>78.2</ele>
        <time>2013-08-06T15:57:11Z</time>
      </trkpt>
      <trkpt lat="49.31789" lon="-0.01824">
        <ele>77.8</ele>
        <time>2013-08-06T15:57:11Z</time>
      </trkpt>
      <trkpt lat="49.31778" lon="-0.01855">
        <ele>77.2</ele>
        <time>2013-08-06T15:57:11Z</time>
      </trkpt>
      <trkpt lat="49.31743" lon="-0.01882">
        <ele>81.1</ele>
        <time>2013-08-06T15:57:11Z</time>
      </trkpt>
      <trkpt lat="49.31716" lon="-0.01881">
        <ele>83.5</ele>
        <time>2013-08-06T15:57:11Z</time>
      </trkpt>
      <trkpt lat="49.31706" lon="-0.01872">
        <ele>85.2</ele>
        <time>2013-08-06T15:57:11Z</time>
      </trkpt>
      <trkpt lat="49.31685" lon="-0.01871">
        <ele>87.3</ele>
        <time>2013-08-06T15:57:11Z</time>
      </trkpt>
      <trkpt lat="49.31661" lon="-0.0189">
        <ele>88.9</ele>
        <time>2013-08-06T15:57:11Z</time>
      </trkpt>
      <trkpt lat="49.31623" lon="-0.01941">
        <ele>93.5</ele>
        <time>2013-08-06T15:57:11Z</time>
      </trkpt>
      <trkpt lat="49.31601" lon="-0.01988">
        <ele>98.3</ele>
        <time>2013-08-06T15:57:11Z</time>
      </trkpt>
      <trkpt lat="49.31574" lon="-0.02047">
        <ele>105.7</ele>
        <time>2013-08-06T15:57:11Z</time>
      </trkpt>
      <trkpt lat="49.31557" lon="-0.02091">
        <ele>110.2</ele>
        <time>2013-08-06T15:57:11Z</time>
      </trkpt>
      <trkpt lat="49.31524" lon="-0.02154">
        <ele>114.8</ele>
        <time>2013-08-06T15:57:11Z</time>
      </trkpt>
      <trkpt lat="49.31495" lon="-0.02181">
        <ele>116.6</ele>
        <time>2013-08-06T15:57:11Z</time>
      </trkpt>
      <trkpt lat="49.31476" lon="-0.02192">
        <ele>116.9</ele>
        <time>2013-08-06T15:57:11Z</time>
      </trkpt>
      <trkpt lat="49.31482" lon="-0.02265">
        <ele>116.9</ele>
        <time>2013-08-06T15:57:11Z</time>
      </trkpt>
      <trkpt lat="49.31479" lon="-0.02301">
        <ele>116.8</ele>
        <time>2013-08-06T15:57:11Z</time>
      </trkpt>
      <trkpt lat="49.31439" lon="-0.02436">
        <ele>114.4</ele>
        <time>2013-08-06T15:57:11Z</time>
      </trkpt>
      <trkpt lat="49.31406" lon="-0.02504">
        <ele>118.7</ele>
        <time>2013-08-06T15:57:11Z</time>
      </trkpt>
      <trkpt lat="49.3136" lon="-0.02602">
        <ele>120.4</ele>
        <time>2013-08-06T15:57:11Z</time>
      </trkpt>
      <trkpt lat="49.31311" lon="-0.02677">
        <ele>121.8</ele>
        <time>2013-08-06T15:57:11Z</time>
      </trkpt>
      <trkpt lat="49.31275" lon="-0.02735">
        <ele>123</ele>
        <time>2013-08-06T15:57:11Z</time>
      </trkpt>
      <trkpt lat="49.31267" lon="-0.02775">
        <ele>122.5</ele>
        <time>2013-08-06T15:57:11Z</time>
      </trkpt>
      <trkpt lat="49.31266" lon="-0.02815">
        <ele>122.2</ele>
        <time>2013-08-06T15:57:11Z</time>
      </trkpt>
      <trkpt lat="49.31277" lon="-0.02913">
        <ele>121</ele>
        <time>2013-08-06T15:57:11Z</time>
      </trkpt>
      <trkpt lat="49.31284" lon="-0.02965">
        <ele>119.6</ele>
        <time>2013-08-06T15:57:11Z</time>
      </trkpt>
      <trkpt lat="49.31289" lon="-0.02978">
        <ele>118.8</ele>
        <time>2013-08-06T15:57:11Z</time>
      </trkpt>
      <trkpt lat="49.3128" lon="-0.03046">
        <ele>119.8</ele>
        <time>2013-08-06T15:57:11Z</time>
      </trkpt>
      <trkpt lat="49.3126" lon="-0.03105">
        <ele>120.6</ele>
        <time>2013-08-06T15:57:11Z</time>
      </trkpt>
      <trkpt lat="49.31252" lon="-0.03113">
        <ele>120.9</ele>
        <time>2013-08-06T15:57:11Z</time>
      </trkpt>
      <trkpt lat="49.31234" lon="-0.0308">
        <ele>121.6</ele>
        <time>2013-08-06T15:57:11Z</time>
      </trkpt>
      <trkpt lat="49.31208" lon="-0.03087">
        <ele>122.5</ele>
        <time>2013-08-06T15:57:11Z</time>
      </trkpt>
      <trkpt lat="49.31189" lon="-0.03102">
        <ele>123</ele>
        <time>2013-08-06T15:57:11Z</time>
      </trkpt>
      <trkpt lat="49.31146" lon="-0.03165">
        <ele>122.8</ele>
        <time>2013-08-06T15:57:11Z</time>
      </trkpt>
      <trkpt lat="49.31091" lon="-0.03243">
        <ele>121.5</ele>
        <time>2013-08-06T15:57:11Z</time>
      </trkpt>
      <trkpt lat="49.31065" lon="-0.03262">
        <ele>121.7</ele>
        <time>2013-08-06T15:57:11Z</time>
      </trkpt>
      <trkpt lat="49.31027" lon="-0.03296">
        <ele>123</ele>
        <time>2013-08-06T15:57:11Z</time>
      </trkpt>
      <trkpt lat="49.31006" lon="-0.03311">
        <ele>123</ele>
        <time>2013-08-06T15:57:11Z</time>
      </trkpt>
      <trkpt lat="49.30943" lon="-0.03276">
        <ele>124</ele>
        <time>2013-08-06T15:57:11Z</time>
      </trkpt>
      <trkpt lat="49.3093" lon="-0.03263">
        <ele>124.5</ele>
        <time>2013-08-06T15:57:11Z</time>
      </trkpt>
      <trkpt lat="49.30958" lon="-0.032">
        <ele>125.4</ele>
        <time>2013-08-06T15:57:11Z</time>
      </trkpt>
      <trkpt lat="49.30975" lon="-0.03129">
        <ele>125.3</ele>
        <time>2013-08-06T15:57:11Z</time>
      </trkpt>
      <trkpt lat="49.31" lon="-0.03065">
        <ele>125.7</ele>
        <time>2013-08-06T15:57:11Z</time>
      </trkpt>
      <trkpt lat="49.31039" lon="-0.02974">
        <ele>126</ele>
        <time>2013-08-06T15:57:11Z</time>
      </trkpt>
      <trkpt lat="49.31094" lon="-0.02872">
        <ele>125.6</ele>
        <time>2013-08-06T15:57:11Z</time>
      </trkpt>
      <trkpt lat="49.31151" lon="-0.02762">
        <ele>125.3</ele>
        <time>2013-08-06T15:57:11Z</time>
      </trkpt>
      <trkpt lat="49.31206" lon="-0.02655">
        <ele>124.6</ele>
        <time>2013-08-06T15:57:11Z</time>
      </trkpt>
      <trkpt lat="49.31233" lon="-0.026">
        <ele>124</ele>
        <time>2013-08-06T15:57:11Z</time>
      </trkpt>
      <trkpt lat="49.31242" lon="-0.02544">
        <ele>124</ele>
        <time>2013-08-06T15:57:11Z</time>
      </trkpt>
      <trkpt lat="49.31262" lon="-0.02457">
        <ele>123.3</ele>
        <time>2013-08-06T15:57:11Z</time>
      </trkpt>
      <trkpt lat="49.31277" lon="-0.02405">
        <ele>122.6</ele>
        <time>2013-08-06T15:57:11Z</time>
      </trkpt>
      <trkpt lat="49.31291" lon="-0.02341">
        <ele>122</ele>
        <time>2013-08-06T15:57:11Z</time>
      </trkpt>
      <trkpt lat="49.31297" lon="-0.02301">
        <ele>121.9</ele>
        <time>2013-08-06T15:57:11Z</time>
      </trkpt>
      <trkpt lat="49.31318" lon="-0.02201">
        <ele>120.5</ele>
        <time>2013-08-06T15:57:11Z</time>
      </trkpt>
      <trkpt lat="49.31321" lon="-0.02157">
        <ele>119.2</ele>
        <time>2013-08-06T15:57:11Z</time>
      </trkpt>
      <trkpt lat="49.31322" lon="-0.02129">
        <ele>118.7</ele>
        <time>2013-08-06T15:57:11Z</time>
      </trkpt>
      <trkpt lat="49.31301" lon="-0.02095">
        <ele>119.2</ele>
        <time>2013-08-06T15:57:11Z</time>
      </trkpt>
      <trkpt lat="49.31273" lon="-0.02062">
        <ele>120.2</ele>
        <time>2013-08-06T15:57:11Z</time>
      </trkpt>
      <trkpt lat="49.31247" lon="-0.02049">
        <ele>121.1</ele>
        <time>2013-08-06T15:57:11Z</time>
      </trkpt>
      <trkpt lat="49.31215" lon="-0.02031">
        <ele>121.3</ele>
        <time>2013-08-06T15:57:11Z</time>
      </trkpt>
      <trkpt lat="49.31134" lon="-0.02019">
        <ele>122.7</ele>
        <time>2013-08-06T15:57:11Z</time>
      </trkpt>
      <trkpt lat="49.31084" lon="-0.02005">
        <ele>122.2</ele>
        <time>2013-08-06T15:57:11Z</time>
      </trkpt>
      <trkpt lat="49.31047" lon="-0.01999">
        <ele>122.3</ele>
        <time>2013-08-06T15:57:11Z</time>
      </trkpt>
      <trkpt lat="49.31021" lon="-0.0199">
        <ele>122.9</ele>
        <time>2013-08-06T15:57:11Z</time>
      </trkpt>
      <trkpt lat="49.31001" lon="-0.01965">
        <ele>122.7</ele>
        <time>2013-08-06T15:57:11Z</time>
      </trkpt>
      <trkpt lat="49.31057" lon="-0.01927">
        <ele>120</ele>
        <time>2013-08-06T15:57:11Z</time>
      </trkpt>
      <trkpt lat="49.31089" lon="-0.01892">
        <ele>116.6</ele>
        <time>2013-08-06T15:57:11Z</time>
      </trkpt>
      <trkpt lat="49.31119" lon="-0.01837">
        <ele>115.4</ele>
        <time>2013-08-06T15:57:11Z</time>
      </trkpt>
      <trkpt lat="49.31155" lon="-0.01758">
        <ele>114.6</ele>
        <time>2013-08-06T15:57:11Z</time>
      </trkpt>
      <trkpt lat="49.31179" lon="-0.01715">
        <ele>112.9</ele>
        <time>2013-08-06T15:57:11Z</time>
      </trkpt>
      <trkpt lat="49.31201" lon="-0.01672">
        <ele>110.4</ele>
        <time>2013-08-06T15:57:11Z</time>
      </trkpt>
      <trkpt lat="49.31242" lon="-0.01625">
        <ele>108.4</ele>
        <time>2013-08-06T15:57:11Z</time>
      </trkpt>
      <trkpt lat="49.31293" lon="-0.01567">
        <ele>105.4</ele>
        <time>2013-08-06T15:57:11Z</time>
      </trkpt>
      <trkpt lat="49.31336" lon="-0.01549">
        <ele>104.5</ele>
        <time>2013-08-06T15:57:11Z</time>
      </trkpt>
      <trkpt lat="49.31394" lon="-0.01547">
        <ele>103.4</ele>
        <time>2013-08-06T15:57:11Z</time>
      </trkpt>
      <trkpt lat="49.31436" lon="-0.01549">
        <ele>100.4</ele>
        <time>2013-08-06T15:57:11Z</time>
      </trkpt>
      <trkpt lat="49.31457" lon="-0.01542">
        <ele>98.2</ele>
        <time>2013-08-06T15:57:11Z</time>
      </trkpt>
      <trkpt lat="49.31492" lon="-0.0152">
        <ele>94.5</ele>
        <time>2013-08-06T15:57:11Z</time>
      </trkpt>
      <trkpt lat="49.31535" lon="-0.01469">
        <ele>88</ele>
        <time>2013-08-06T15:57:11Z</time>
      </trkpt>
      <trkpt lat="49.31599" lon="-0.01408">
        <ele>85.1</ele>
        <time>2013-08-06T15:57:11Z</time>
      </trkpt>
      <trkpt lat="49.31639" lon="-0.01398">
        <ele>82.4</ele>
        <time>2013-08-06T15:57:11Z</time>
      </trkpt>
      <trkpt lat="49.31713" lon="-0.01389">
        <ele>77.3</ele>
        <time>2013-08-06T15:57:11Z</time>
      </trkpt>
      <trkpt lat="49.31737" lon="-0.0139">
        <ele>75.4</ele>
        <time>2013-08-06T15:57:11Z</time>
      </trkpt>
      <trkpt lat="49.3175" lon="-0.01354">
        <ele>77.7</ele>
        <time>2013-08-06T15:57:11Z</time>
      </trkpt>
      <trkpt lat="49.31762" lon="-0.01323">
        <ele>79.5</ele>
        <time>2013-08-06T15:57:11Z</time>
      </trkpt>
      <trkpt lat="49.31779" lon="-0.01259">
        <ele>79.3</ele>
        <time>2013-08-06T15:57:11Z</time>
      </trkpt>
      <trkpt lat="49.31782" lon="-0.01211">
        <ele>78.4</ele>
        <time>2013-08-06T15:57:11Z</time>
      </trkpt>
      <trkpt lat="49.31816" lon="-0.01111">
        <ele>71</ele>
        <time>2013-08-06T15:57:11Z</time>
      </trkpt>
      <trkpt lat="49.31855" lon="-0.00992">
        <ele>58.9</ele>
        <time>2013-08-06T15:57:11Z</time>
      </trkpt>
      <trkpt lat="49.31874" lon="-0.00969">
        <ele>55.8</ele>
        <time>2013-08-06T15:57:11Z</time>
      </trkpt>
      <trkpt lat="49.31903" lon="-0.00954">
        <ele>52.9</ele>
        <time>2013-08-06T15:57:11Z</time>
      </trkpt>
      <trkpt lat="49.31924" lon="-0.00959">
        <ele>52.8</ele>
        <time>2013-08-06T15:57:11Z</time>
      </trkpt>
    </trkseg>
  </trk>
</gpx>